Location: Ellingshausen
(50.5460°N, 10.4723°E)
Time: 23:03:32
(UTC+00:00)

Cosmos 2278 Rocket - Pass Details

Date: 18 January 2026
Orbit: 839 x 846 km, 71.0° (Epoch: 9 February)

Event Time Altitude Azimuth Distance (km) Brightness Sun altitude
Exits shadow 05:56:28 - 240° (WSW) 3,269 4.9 -11.4°
Reaches altitude 10° 05:58:47 10° 248° (WSW) 2,458 4.2 -11.1°
Maximum altitude 06:03:54 34° 313° (NW) 1,355 2.8 -10.3°
Drops below altitude 10° 06:09:03 10° 18° (NNE) 2,473 4.6 -9.6°
Sets 06:11:45 0° 28° (NNE) 3,413 5.4 -9.2°
